[[{"header":{"parameterUnit":"m.s-1","parameterCategory":2,"la1":30.2991,"la2":30.254,"lo1":-89.0895,"lo2":-89.0444,"dy":0.0017,"dx":0.0017,"nx":28,"ny":28,"refTime":"2025-09-11T21:00:00:Z","depth":"0","parameterNumber":2,"parameterNumberName":"U-component_of_CURRENTS"},"data":[0,0,0,0,0,0,0,0,0,0,0,0,0,0,0,0,0,0,0,0,0,0,0,0,0,0,0,0,0,0,0,0,0,0,0,0,0,0,0,0,0,0,0,0,0,0,0,0,0,0,0,0,0,0,0,0,0,0,0.3362,0.3362,0,0.3367,0.3366,0.3366,0.3347,0.3347,0.3347,0.3347,0.3307,0.3306,0.3305,0,0,0,0,0,0,0,0,0,0,0,0,0,0.3309,0.3309,0.3362,0.3362,0.3363,0.3367,0.3366,0.3366,0.3347,0.3347,0.3347,0.3347,0.3307,0.3306,0.3305,0,0,0,0,0,0,0,0,0,0,0,0,0,0.3321,0.331,0.3362,0.3357,0.3356,0.3367,0.3366,0.3366,0.3347,0.3347,0.3347,0.3346,0.3307,0.3306,0.3305,0.3303,0,0,0.3301,0.33,0,0,0,0,0,0,0,0,0.332,0.3322,0.3357,0.3357,0.3357,0.3359,0.3333,0.3344,0.3347,0.3347,0.3347,0.3346,0.3323,0.332,0.3317,0.3301,0.3299,0.3301,0.33,0.3299,0.3299,0,0,0,0,0,0,0,0.3319,0.3322,0.336,0.3358,0.3358,0.3345,0.3346,0.3335,0.3333,0.3347,0.3346,0.3353,0.3322,0.3318,0.3316,0.3299,0.3301,0.33,0.3299,0.3298,0.3323,0.3324,0,0,0,0,0,0,0.3328,0.3321,0.336,0.336,0.3342,0.3346,0.3347,0.3356,0.3334,0.3332,0.3353,0.3352,0.3321,0.3318,0.3314,0.3349,0.3299,0.3298,0.3297,0.3321,0.3323,0.3325,0,0,0,0,0,0,0.3327,0.3332,0.336,0.3344,0.3347,0.3348,0.3357,0.3356,0.336,0.334,0.3336,0.336,0.332,0.3316,0.331,0.3346,0.3297,0.3296,0.332,0.3322,0.3324,0.3394,0,0,0,0,0,0,0.3326,0.3331,0.334,0.3345,0.3348,0.338,0.3358,0.3357,0.3366,0.3365,0.3344,0.334,0.332,0.3312,0.3309,0.3343,0.3295,0.3318,0.3321,0.3323,0.339,0.3398,0.3406,0,0,0,0,0,0.3324,0.3339,0.334,0.3345,0.336,0.3382,0.3383,0.3379,0.3367,0.3378,0.3357,0.3341,0.3328,0.3312,0.3307,0.3343,0.3316,0.332,0.3323,0.3386,0.3397,0.3405,0,0,0,0,0,0,0.3317,0.3339,0.334,0.336,0.3377,0.3381,0.3391,0.3387,0.3379,0.3375,0.3346,0.3341,0.3357,0.3336,0.332,0.3359,0.3325,0.3327,0.3375,0.3384,0.3392,0.3408,0.3294,0,0,0,0,0,0.3322,0.3339,0.3358,0.3375,0.3387,0.339,0.3397,0.3398,0.3394,0.3391,0.3377,0.3366,0.3367,0.3363,0.336,0.3369,0.3366,0.3394,0.3401,0.3408,0.3419,0.3449,0.3461,0.3335,0.3335,0.3335,0,0,0.332,0.3338,0.3344,0.3375,0.3385,0.341,0.3393,0.3414,0.3432,0.3387,0.3401,0.3392,0.3376,0.3395,0.3401,0.338,0.3442,0.3412,0.3418,0.3426,0.3454,0.3466,0.3477,0.3337,0.3337,0.3337,0,0,0.333,0.3348,0.3366,0.3388,0.3418,0.3428,0.3439,0.3452,0.3458,0.347,0.3451,0.3462,0.3452,0.3456,0.3454,0.3503,0.3485,0.3505,0.3552,0.3582,0.3592,0.3602,0.3609,0.3619,0.3505,0.3505,0.3505,0,0.3328,0.3354,0.3375,0.3404,0.3426,0.344,0.3467,0.3481,0.3489,0.3497,0.3486,0.35,0.3488,0.3516,0.3537,0.3523,0.3526,0.3516,0.3593,0.3602,0.361,0.3616,0.3625,0.3509,0.3509,0.3508,0.3508,0,0.3351,0.3376,0.3394,0.3436,0.3466,0.3492,0.3525,0.3545,0.3553,0.3564,0.3597,0.3588,0.3595,0.3604,0.3583,0.3642,0.362,0.3602,0.3569,0.3627,0.3629,0.3638,0.3515,0.3513,0.3512,0.3511,0,0,0.3331,0.3395,0.34,0.342,0.3485,0.3504,0.3555,0.3595,0.3621,0.3642,0.3676,0.3696,0.3695,0.3694,0.3682,0.3711,0.3772,0.3686,0.3686,0.3694,0.3826,0.3755,0.3757,0.3769,0.3771,0.3772,0.3801,0,0.3339,0.3386,0.3427,0.3472,0.3498,0.3543,0.3583,0.3625,0.3663,0.3701,0.372,0.3748,0.3729,0.3738,0.3768,0.3777,0.38,0.3765,0.3768,0.3768,0.3699,0.3767,0.3663,0.3676,0.381,0.3811,0.3812,0,0.3343,0.3376,0.3418,0.348,0.3496,0.3529,0.36,0.3638,0.3708,0.3742,0.379,0.3804,0.3856,0.3829,0.3881,0.386,0.3852,0.3854,0.3855,0.3771,0.3714,0.3641,0.3687,0.36,0.3825,0.3824,0.3823,0,0.3296,0.3366,0.3395,0.3418,0.3493,0.352,0.3562,0.364,0.3678,0.3772,0.3806,0.3874,0.3898,0.3927,0.3935,0.3915,0.3985,0.395,0.3876,0.387,0.3774,0.3755,0.3736,0.3986,0.3986,0.3986,0.3986,0,0.3278,0.3298,0.3369,0.338,0.341,0.3485,0.3531,0.3589,0.3684,0.3721,0.3811,0.3853,0.3926,0.3966,0.3969,0.3956,0.4011,0.3903,0.3884,0.3793,0.3777,0.3688,0.3644,0.3987,0.3987,0.3987,0.3987,0,0.3211,0.3261,0.3288,0.3363,0.3381,0.34,0.3492,0.3528,0.3631,0.369,0.3721,0.385,0.3906,0.3958,0.4013,0.3979,0.388,0.3961,0.3841,0.3808,0.363,0.3594,0.3433,0.3328,0.3883,0.3881,0.388,0,0.3178,0.3186,0.3246,0.3252,0.3282,0.3327,0.3353,0.3478,0.3528,0.3667,0.3683,0.3787,0.3835,0.3909,0.3909,0.3916,0.3807,0.3791,0.3731,0.3622,0.357,0.3438,0.3352,0.3631,0.3628,0.3626,0.3623,0,0.3109,0.3129,0.3149,0.3157,0.3182,0.3207,0.3263,0.3305,0.3437,0.3491,0.3578,0.3642,0.3745,0.3733,0.3761,0.375,0.362,0.3734,0.3665,0.3413,0.3226,0.3115,0.36,0.3601,0.3603,0.3605,0.3606,0.3607,0.3044,0.3026,0.3041,0.3036,0.3061,0.3059,0.3041,0.3127,0.3171,0.3226,0.3388,0.3417,0.3546,0.3585,0.3554,0.3456,0.3428,0.3358,0.3337,0.3224,0.3075,0.3498,0.3448,0.345,0.3451,0.3452,0.3453,0,0.2922,0.2906,0.2911,0.2887,0.2854,0.2912,0.2942,0.291,0.2899,0.3024,0.3076,0.3153,0.3179,0.3254,0.325,0.3109,0.2975,0.3012,0.2828,0.2773,0.3201,0.3145,0.2974,0.2974,0.2974,0.2974,0.2974,0.2974,0.285,0.2784,0.2772,0.2665,0.2654,0.2568,0.2551,0.2543,0.2601,0.2612,0.2642,0.2743,0.2964,0.3071,0.2975,0.288,0.264,0.2513,0.2482,0.2829,0.286,0.289,0.2828,0.2593,0.2593,0.1963,0.1958,0.1955]},{"header":{"parameterUnit":"m.s-1","parameterCategory":2,"la1":30.2991,"la2":30.254,"lo1":-89.0895,"lo2":-89.0444,"dy":0.0017,"dx":0.0017,"nx":28,"ny":28,"refTime":"2025-09-11T21:00:00:Z","depth":"0","parameterNumber":3,"parameterNumberName":"V-component_of_CURRENTS"},"data":[0,0,0,0,0,0,0,0,0,0,0,0,0,0,0,0,0,0,0,0,0,0,0,0,0,0,0,0,0,0,0,0,0,0,0,0,0,0,0,0,0,0,0,0,0,0,0,0,0,0,0,0,0,0,0,0,0,0,-0.0009,-0.0009,0,-0.009,-0.0091,-0.0092,-0.0141,-0.0141,-0.0141,-0.0141,-0.0275,-0.0278,-0.0282,0,0,0,0,0,0,0,0,0,0,0,0,0,0.0035,0.0035,-0.0009,-0.0009,-0.001,-0.009,-0.0091,-0.0093,-0.0141,-0.0141,-0.0141,-0.0141,-0.0274,-0.0278,-0.0282,0,0,0,0,0,0,0,0,0,0,0,0,0,-0.0011,0.0035,-0.0009,-0.0042,-0.0046,-0.009,-0.0091,-0.0093,-0.0141,-0.0141,-0.0141,-0.0141,-0.0272,-0.0277,-0.0283,-0.0317,0,0,-0.0299,-0.0301,0,0,0,0,0,0,0,0,-0.0008,-0.0013,-0.0036,-0.004,-0.0044,-0.0103,-0.0125,-0.0169,-0.0141,-0.0108,-0.0141,-0.0141,-0.022,-0.023,-0.0249,-0.0323,-0.0329,-0.03,-0.0303,-0.0305,-0.0307,0,0,0,0,0,0,0,-0.0005,-0.001,-0.0044,-0.0037,-0.0042,-0.0076,-0.0083,-0.0134,-0.0166,-0.0111,-0.0114,-0.0118,-0.0223,-0.0243,-0.0252,-0.0331,-0.0299,-0.0304,-0.0307,-0.031,-0.0428,-0.0428,0,0,0,0,0,0,0.0014,-0.0007,-0.0041,-0.0046,-0.0022,-0.0077,-0.0084,-0.0086,-0.0165,-0.0176,-0.0118,-0.012,-0.0234,-0.0246,-0.0257,-0.0278,-0.0305,-0.031,-0.0313,-0.0428,-0.0428,-0.0428,0,0,0,0,0,0,0.0016,0.0012,-0.0038,-0.0026,-0.0035,-0.0077,-0.008,-0.0088,-0.0102,-0.017,-0.0182,-0.0123,-0.0235,-0.025,-0.0286,-0.0285,-0.0313,-0.0317,-0.0428,-0.0428,-0.0428,-0.0337,0,0,0,0,0,0,0.0017,0.0013,0.0016,-0.0025,-0.0034,-0.0053,-0.008,-0.0089,-0.0104,-0.0108,-0.0178,-0.0191,-0.0236,-0.0277,-0.0291,-0.0293,-0.0322,-0.0428,-0.0428,-0.0428,-0.034,-0.0333,-0.0328,0,0,0,0,0,0.0019,0.0025,0.0017,0.0012,-0.0028,-0.0052,-0.0061,-0.0093,-0.0104,-0.0107,-0.0147,-0.0188,-0.0287,-0.0281,-0.0298,-0.0301,-0.0428,-0.0428,-0.0428,-0.0342,-0.0335,-0.0328,0,0,0,0,0,0,0.0045,0.002,0.001,0.0008,-0.0014,-0.0059,-0.0065,-0.0086,-0.0121,-0.0124,-0.0185,-0.0201,-0.0233,-0.028,-0.0272,-0.0335,-0.0366,-0.0369,-0.0295,-0.0289,-0.0283,-0.0252,-0.0326,0,0,0,0,0,0.0054,0.0053,0.0023,0.0023,0.0015,-0.0023,-0.0037,-0.0057,-0.0092,-0.0107,-0.0154,-0.0205,-0.0248,-0.0275,-0.0322,-0.0356,-0.0375,-0.0371,-0.0365,-0.0359,-0.0346,-0.0361,-0.0355,-0.0427,-0.0427,-0.0427,0,0,0.0064,0.0051,0.005,0.0029,0.0008,0.0002,-0.0032,-0.0046,-0.0052,-0.0118,-0.014,-0.0186,-0.0251,-0.0284,-0.0305,-0.0322,-0.0348,-0.0359,-0.0354,-0.0343,-0.036,-0.0353,-0.0346,-0.0427,-0.0427,-0.0427,0,0,0.0089,0.0074,0.0084,0.0068,0.0047,0.0024,0.0026,-0.0013,-0.003,-0.0058,-0.0102,-0.0134,-0.0213,-0.0247,-0.0278,-0.0269,-0.0313,-0.0297,-0.0246,-0.0261,-0.0254,-0.0249,-0.0253,-0.0249,-0.0297,-0.0296,-0.0296,0,0.0102,0.011,0.0082,0.0086,0.0083,0.0041,0.0052,0.0024,-0.0021,-0.0025,-0.0054,-0.0135,-0.0191,-0.0218,-0.0217,-0.0254,-0.0267,-0.0264,-0.025,-0.0245,-0.0241,-0.0247,-0.0243,-0.0292,-0.0293,-0.0293,-0.0293,0,0.0134,0.0138,0.0142,0.0137,0.0129,0.0129,0.0097,0.0085,0.0058,0.0034,0.0006,-0.0064,-0.0107,-0.0137,-0.0179,-0.0182,-0.02,-0.0235,-0.0259,-0.0228,-0.0237,-0.0235,-0.0286,-0.0287,-0.0289,-0.029,0,0,0.0173,0.0168,0.017,0.0182,0.0158,0.0159,0.0152,0.0144,0.0159,0.01,0.0115,0.0031,0.0003,-0.0033,-0.009,-0.011,-0.0097,-0.0156,-0.0158,-0.0143,-0.0117,-0.0133,-0.0132,-0.0126,-0.0126,-0.0125,-0.013,0,0.0209,0.0238,0.0222,0.025,0.0264,0.0231,0.0232,0.0217,0.0201,0.0202,0.0135,0.0115,0.0038,0.0023,-0.0007,-0.0068,-0.0088,-0.0091,-0.0164,-0.0166,-0.0171,-0.0129,-0.0104,-0.0107,-0.0129,-0.0128,-0.0128,0,0.0251,0.0265,0.0303,0.0317,0.0321,0.0327,0.0346,0.0344,0.0329,0.0315,0.029,0.0238,0.0199,0.0126,0.0048,0.0051,-0.0023,-0.0077,-0.008,-0.0123,-0.0177,-0.0147,-0.0103,-0.0246,-0.0125,-0.0125,-0.0126,0,0.0307,0.0325,0.0364,0.0366,0.0369,0.0383,0.0386,0.0382,0.041,0.0396,0.0417,0.0351,0.0333,0.0235,0.0113,0.0084,0.0035,-0.0023,-0.0106,-0.0108,-0.0115,-0.0118,-0.0203,-0.0076,-0.0076,-0.0076,-0.0076,0,0.0357,0.0386,0.0393,0.0412,0.0462,0.0442,0.0501,0.0493,0.0514,0.0571,0.0483,0.0517,0.036,0.0304,0.0172,0.0058,0.0079,-0.0078,-0.0105,-0.0083,-0.0084,-0.0234,-0.0331,-0.0077,-0.0077,-0.0076,-0.0076,0,0.0412,0.0415,0.0461,0.0478,0.0491,0.0528,0.0579,0.0629,0.0626,0.0702,0.0701,0.066,0.0591,0.0431,0.0291,0.015,-0.0055,-0.0029,0.0013,-0.001,-0.0234,-0.0327,-0.045,-0.0517,-0.0114,-0.0114,-0.0115,0,0.0441,0.0471,0.0519,0.0561,0.0572,0.0625,0.067,0.0684,0.0756,0.0801,0.0858,0.0805,0.0812,0.0602,0.0344,0.0127,-0.0042,-0.0022,-0.0087,-0.0225,-0.0349,-0.0422,-0.0475,-0.0057,-0.0056,-0.0056,-0.0056,0,0.05,0.0518,0.0561,0.0644,0.0702,0.0776,0.0847,0.0921,0.0958,0.1033,0.1132,0.114,0.0929,0.0735,0.0403,0.0232,-0.0123,-0.0027,-0.0179,-0.0312,-0.0386,-0.047,-0.0075,-0.0055,-0.0055,-0.0055,-0.0055,-0.0055,0.0549,0.0594,0.0656,0.0737,0.0813,0.0919,0.0997,0.1102,0.1233,0.1359,0.1355,0.1413,0.1076,0.0645,0.0382,-0.0094,-0.0124,-0.0243,-0.0341,-0.0399,-0.0477,-0.0073,-0.0087,-0.0087,-0.0087,-0.0087,-0.0088,0,0.0611,0.0666,0.0747,0.0847,0.0944,0.0968,0.1116,0.1213,0.139,0.1527,0.1626,0.1521,0.111,0.0657,0.0009,-0.0338,-0.0473,-0.053,-0.0629,-0.0668,-0.0305,-0.0315,-0.0367,-0.0367,-0.0367,-0.0367,-0.0366,-0.0366,0.0648,0.0738,0.0777,0.094,0.1017,0.1153,0.1244,0.1399,0.1535,0.1729,0.1798,0.1817,0.1465,0.031,-0.0455,-0.0629,-0.089,-0.0949,-0.1083,-0.0843,-0.0824,-0.0805,-0.0837,-0.0998,-0.0998,-0.1385,-0.1389,-0.1392]}],[{"header":{"parameterUnit":"m.s-1","parameterCategory":2,"la1":30.2991,"la2":30.254,"lo1":-89.0895,"lo2":-89.0444,"dy":0.0017,"dx":0.0017,"nx":28,"ny":28,"refTime":"2025-09-11T21:00:00:Z","depth":"2","parameterNumber":2,"parameterNumberName":"U-component_of_CURRENTS"},"data":[0,0,0,0,0,0,0,0,0,0,0,0,0,0,0,0,0,0,0,0,0,0,0,0,0,0,0,0,0,0,0,0,0,0,0,0,0,0,0,0,0,0,0,0,0,0,0,0,0,0,0,0,0,0,0,0,0,0,0.2603,0.2604,0,0.2608,0.2608,0.2608,0.2594,0.2594,0.2594,0.2593,0.2624,0.2624,0.2625,0,0,0,0,0,0,0,0,0,0,0,0,0,0.2563,0.2563,0.2603,0.2604,0.2604,0.2608,0.2608,0.2608,0.2594,0.2594,0.2594,0.2593,0.2623,0.2624,0.2625,0,0,0,0,0,0,0,0,0,0,0,0,0,0.2571,0.2564,0.2603,0.2601,0.2601,0.2608,0.2608,0.2608,0.2594,0.2594,0.2594,0.2593,0.2623,0.2624,0.2625,0.2635,0,0,0.2629,0.263,0,0,0,0,0,0,0,0,0.2571,0.2572,0.2601,0.2601,0.2601,0.2604,0.2605,0.2619,0.2594,0.2592,0.2593,0.2593,0.2622,0.2623,0.2618,0.2636,0.2638,0.2629,0.263,0.2631,0.2631,0,0,0,0,0,0,0,0.257,0.2572,0.2601,0.2601,0.2602,0.2593,0.2594,0.2607,0.2605,0.2592,0.2592,0.2599,0.2622,0.2617,0.2619,0.2638,0.2629,0.2631,0.2631,0.2632,0.2715,0.2716,0,0,0,0,0,0,0.2579,0.2572,0.2601,0.2602,0.259,0.2595,0.2595,0.26,0.2604,0.2606,0.26,0.2599,0.2615,0.2618,0.262,0.2686,0.2631,0.2632,0.2633,0.2713,0.2715,0.2716,0,0,0,0,0,0,0.2578,0.2582,0.2601,0.259,0.2593,0.2596,0.2601,0.26,0.2616,0.261,0.2611,0.2619,0.2615,0.2618,0.2646,0.2685,0.2632,0.2634,0.2711,0.2714,0.2716,0.2783,0,0,0,0,0,0,0.2577,0.2581,0.2593,0.2591,0.2594,0.2616,0.2601,0.26,0.2621,0.262,0.2627,0.2628,0.2615,0.2644,0.2647,0.2686,0.2635,0.271,0.2712,0.2715,0.2779,0.2787,0.2794,0,0,0,0,0,0.2576,0.2585,0.2593,0.2597,0.2607,0.2617,0.2617,0.2616,0.2622,0.263,0.2637,0.2629,0.2663,0.2646,0.2649,0.2689,0.2708,0.2712,0.2715,0.2775,0.2785,0.2794,0,0,0,0,0,0,0.2575,0.2585,0.2593,0.2607,0.262,0.2616,0.2628,0.2633,0.2644,0.2652,0.2644,0.2646,0.2684,0.2678,0.2659,0.2721,0.2686,0.2691,0.2732,0.2741,0.2748,0.2732,0.2636,0,0,0,0,0,0.2583,0.2592,0.2604,0.2619,0.263,0.2637,0.2645,0.2648,0.2656,0.2661,0.267,0.2682,0.2697,0.2712,0.2718,0.2755,0.2748,0.2784,0.2791,0.2798,0.2787,0.2815,0.2824,0.2727,0.2727,0.2727,0,0,0.2586,0.2596,0.2601,0.262,0.2631,0.2647,0.2641,0.2663,0.268,0.2665,0.27,0.271,0.2711,0.2746,0.2764,0.2749,0.2826,0.2802,0.2807,0.2792,0.2819,0.2828,0.2836,0.2729,0.2729,0.2728,0,0,0.2593,0.2611,0.2621,0.2637,0.2664,0.2669,0.2684,0.2701,0.2714,0.274,0.2744,0.2769,0.2792,0.2801,0.2807,0.2862,0.2862,0.2885,0.2916,0.2944,0.2952,0.2959,0.2979,0.2987,0.2893,0.2893,0.2893,0,0.2593,0.2613,0.2627,0.2646,0.2663,0.2685,0.2704,0.2722,0.2747,0.2763,0.2757,0.2806,0.2808,0.2856,0.2873,0.2878,0.2898,0.2882,0.2954,0.296,0.2966,0.2985,0.2993,0.2897,0.2896,0.2896,0.2895,0,0.2613,0.263,0.2642,0.2672,0.2693,0.2715,0.2745,0.2771,0.2791,0.2807,0.2857,0.2865,0.2891,0.291,0.2904,0.2966,0.2969,0.2958,0.2929,0.298,0.2997,0.3004,0.2902,0.2901,0.2899,0.2899,0,0,0.2587,0.2641,0.2644,0.2662,0.271,0.2723,0.2767,0.2802,0.2836,0.2866,0.2906,0.2936,0.2956,0.2964,0.2985,0.3011,0.307,0.3011,0.3011,0.3029,0.3145,0.3094,0.3096,0.3089,0.3091,0.3092,0.3146,0,0.2592,0.2621,0.2657,0.2691,0.2704,0.2748,0.2786,0.2827,0.2862,0.2909,0.2938,0.2986,0.2978,0.3011,0.3036,0.3065,0.3091,0.3056,0.3094,0.3095,0.3041,0.3103,0.2869,0.2894,0.3153,0.3154,0.3155,0,0.259,0.2608,0.2639,0.2691,0.2707,0.2738,0.2801,0.2841,0.2913,0.2953,0.3006,0.3035,0.3094,0.3072,0.3137,0.3127,0.3137,0.3146,0.3149,0.3075,0.3056,0.2882,0.2896,0.3166,0.3165,0.3164,0.3164,0,0.254,0.2591,0.2614,0.2633,0.2701,0.2731,0.2772,0.2845,0.2895,0.2991,0.3033,0.3105,0.3146,0.3176,0.3197,0.3184,0.3255,0.3233,0.3192,0.3188,0.2977,0.2953,0.3263,0.3263,0.3262,0.3262,0.3262,0,0.2519,0.2533,0.2594,0.2605,0.2644,0.2704,0.2766,0.2825,0.292,0.2974,0.3058,0.3109,0.3176,0.3219,0.3227,0.3238,0.3282,0.3201,0.3202,0.2997,0.2975,0.3192,0.3183,0.3264,0.3264,0.3263,0.3263,0,0.2461,0.2504,0.2525,0.2593,0.2621,0.2646,0.2757,0.2793,0.2906,0.2977,0.3014,0.3132,0.3197,0.3246,0.33,0.3271,0.3288,0.3275,0.3031,0.3001,0.3193,0.3187,0.3234,0.3233,0.3232,0.3231,0.323,0,0.2433,0.2442,0.25,0.2514,0.255,0.2607,0.2642,0.2769,0.2816,0.2971,0.299,0.3102,0.3149,0.3231,0.3216,0.3233,0.328,0.3009,0.2924,0.3196,0.3192,0.3188,0.3183,0.2678,0.2673,0.2669,0.2665,0,0.2383,0.2409,0.2427,0.2445,0.248,0.2519,0.2582,0.2621,0.2755,0.2826,0.291,0.2968,0.3066,0.2985,0.3029,0.3001,0.2991,0.2923,0.3273,0.2728,0.2678,0.2673,0.2685,0.2627,0.2631,0.2634,0.2636,0.2638,0.2337,0.2329,0.2351,0.2363,0.2397,0.2401,0.2395,0.2468,0.2526,0.2591,0.2732,0.2744,0.2797,0.2747,0.2674,0.262,0.282,0.2683,0.2694,0.2709,0.2641,0.2592,0.2513,0.2516,0.2519,0.2521,0.2523,0,0.2254,0.2255,0.2265,0.2258,0.224,0.2301,0.2325,0.2292,0.2293,0.2393,0.2454,0.2295,0.2272,0.2319,0.2189,0.2202,0.2153,0.2103,0.2011,0.2053,0.209,0.1985,0.1686,0.1683,0.168,0.1677,0,0,0.2205,0.2168,0.2165,0.21,0.2101,0.2033,0.2017,0.1992,0.2026,0.1999,0.1998,0.2185,0.2272,0.1945,0.1917,0.1772,0.189,0.1706,0.2388,0.2324,0.2355,0.2448,0.234,0,0,0,0,0]},{"header":{"parameterUnit":"m.s-1","parameterCategory":2,"la1":30.2991,"la2":30.254,"lo1":-89.0895,"lo2":-89.0444,"dy":0.0017,"dx":0.0017,"nx":28,"ny":28,"refTime":"2025-09-11T21:00:00:Z","depth":"2","parameterNumber":3,"parameterNumberName":"V-component_of_CURRENTS"},"data":[0,0,0,0,0,0,0,0,0,0,0,0,0,0,0,0,0,0,0,0,0,0,0,0,0,0,0,0,0,0,0,0,0,0,0,0,0,0,0,0,0,0,0,0,0,0,0,0,0,0,0,0,0,0,0,0,0,0,0.0291,0.029,0,0.0244,0.0244,0.0243,0.0211,0.0211,0.0211,0.021,0.0123,0.0121,0.0119,0,0,0,0,0,0,0,0,0,0,0,0,0,0.0301,0.0301,0.0291,0.029,0.029,0.0245,0.0244,0.0243,0.0211,0.0211,0.0211,0.021,0.0124,0.0121,0.0119,0,0,0,0,0,0,0,0,0,0,0,0,0,0.0279,0.0301,0.0291,0.0269,0.0267,0.0245,0.0244,0.0243,0.0211,0.0211,0.021,0.021,0.0125,0.0122,0.0118,0.0102,0,0,0.0108,0.0107,0,0,0,0,0,0,0,0,0.028,0.0278,0.0273,0.0271,0.0268,0.0234,0.0215,0.0194,0.0211,0.0231,0.021,0.021,0.0158,0.0152,0.0142,0.0098,0.0095,0.0108,0.0106,0.0105,0.0104,0,0,0,0,0,0,0,0.0282,0.028,0.0271,0.0272,0.0269,0.0244,0.0241,0.0211,0.0194,0.0229,0.0227,0.0224,0.0156,0.0146,0.014,0.0093,0.0108,0.0105,0.0103,0.0102,0.0033,0.0034,0,0,0,0,0,0,0.0293,0.0282,0.0273,0.027,0.0275,0.0245,0.0241,0.0244,0.0195,0.0188,0.0224,0.0222,0.0151,0.0144,0.0137,0.0126,0.0105,0.0102,0.01,0.0033,0.0033,0.0034,0,0,0,0,0,0,0.0293,0.0293,0.0275,0.0275,0.0271,0.0245,0.0249,0.0244,0.0234,0.0192,0.0184,0.022,0.0151,0.0141,0.0118,0.0122,0.01,0.0097,0.0033,0.0033,0.0033,0.0097,0,0,0,0,0,0,0.0294,0.0293,0.0299,0.0276,0.0272,0.0268,0.0249,0.0243,0.0233,0.023,0.0186,0.0177,0.015,0.0123,0.0115,0.0117,0.0095,0.0033,0.0033,0.0033,0.0095,0.01,0.0104,0,0,0,0,0,0.0294,0.0307,0.0299,0.0298,0.0281,0.0269,0.0264,0.0244,0.0233,0.0233,0.0206,0.0179,0.0119,0.0121,0.0111,0.0112,0.0033,0.0033,0.0033,0.0093,0.0099,0.0104,0,0,0,0,0,0,0.0314,0.0305,0.0296,0.0305,0.029,0.0264,0.0263,0.0247,0.0225,0.0223,0.0182,0.0172,0.0153,0.0123,0.0127,0.0093,0.007,0.0069,0.0119,0.0124,0.0128,0.0151,0.0092,0,0,0,0,0,0.0322,0.0329,0.0311,0.0318,0.0313,0.0288,0.028,0.0267,0.0245,0.0235,0.0204,0.0171,0.0146,0.0129,0.0101,0.0082,0.0053,0.0075,0.008,0.0084,0.0095,0.0056,0.0058,0.0035,0.0035,0.0035,0,0,0.0331,0.0327,0.033,0.0322,0.0309,0.0313,0.0282,0.0277,0.0279,0.0229,0.022,0.0185,0.0145,0.0128,0.0115,0.0103,0.0074,0.0084,0.0088,0.0097,0.0057,0.0059,0.0061,0.0035,0.0035,0.0035,0,0,0.0356,0.0349,0.0364,0.0356,0.0344,0.0332,0.0333,0.0309,0.0297,0.0283,0.025,0.0224,0.0179,0.0156,0.0138,0.0148,0.01,0.013,0.0169,0.0131,0.0133,0.0134,0.01,0.0098,0.0131,0.0131,0.0131,0,0.0367,0.0385,0.0365,0.0376,0.0379,0.0346,0.0364,0.0346,0.0317,0.0311,0.029,0.0232,0.0197,0.018,0.0184,0.0159,0.0128,0.0154,0.0138,0.0138,0.0138,0.0103,0.01,0.0134,0.0134,0.0133,0.0133,0,0.0403,0.0416,0.0424,0.0432,0.0431,0.0439,0.042,0.0411,0.039,0.0371,0.0346,0.0295,0.0263,0.0242,0.0217,0.0201,0.0175,0.015,0.0129,0.0145,0.0106,0.0102,0.0138,0.0137,0.0136,0.0136,0,0,0.0436,0.0449,0.0452,0.047,0.0464,0.047,0.0473,0.047,0.0479,0.0433,0.0434,0.0382,0.0349,0.0327,0.0282,0.0247,0.0219,0.0203,0.02,0.0178,0.0134,0.0116,0.0109,0.0187,0.0186,0.0186,0.0107,0,0.0472,0.0513,0.0508,0.0548,0.057,0.0546,0.0553,0.0542,0.0525,0.0515,0.0454,0.0438,0.0382,0.0368,0.0324,0.0249,0.021,0.0243,0.0115,0.0112,0.01,0.0104,0.0129,0.0061,0.0102,0.0101,0.0101,0,0.0514,0.0538,0.0584,0.0614,0.062,0.0635,0.0651,0.0655,0.0628,0.0613,0.0579,0.0528,0.0477,0.0424,0.0304,0.0325,0.024,0.0174,0.0169,0.013,0.0085,0.0049,0.005,0.0093,0.0093,0.0094,0.0094,0,0.0557,0.0595,0.0638,0.0646,0.0667,0.068,0.0692,0.0683,0.0705,0.0678,0.0686,0.0604,0.0572,0.0455,0.0319,0.0309,0.0182,0.0148,0.005,0.0047,0.0034,0.0031,0.0063,0.0063,0.0063,0.0063,0.0063,0,0.0604,0.0638,0.066,0.0683,0.0735,0.073,0.0781,0.0776,0.0787,0.0821,0.0742,0.0746,0.0578,0.0483,0.0346,0.019,0.0199,0.0063,0.0028,0.0056,0.0056,0.0056,0.0056,0.006,0.0061,0.0061,0.0062,0,0.0642,0.0655,0.0708,0.0741,0.0756,0.0793,0.0852,0.089,0.0887,0.093,0.0926,0.0853,0.073,0.0555,0.0367,0.0237,0.0082,0.0022,0.0069,0.0041,-0.0036,-0.0031,-0.0095,-0.0096,-0.0097,-0.0098,-0.0099,0,0.0666,0.0696,0.0754,0.0792,0.0809,0.0867,0.091,0.0937,0.099,0.0999,0.1025,0.0925,0.087,0.0591,0.0344,0.0103,0.0072,-0.0037,-0.0053,-0.0023,-0.0051,-0.0045,-0.0039,-0.0051,-0.0052,-0.0052,-0.0052,0,0.0711,0.0726,0.0769,0.0846,0.0903,0.0978,0.1045,0.1102,0.1134,0.1167,0.1186,0.1142,0.0885,0.0645,0.0316,0.0155,0.0002,-0.005,-0.0035,-0.001,0.0012,-0.0013,-0.0008,-0.0054,-0.0054,-0.0054,-0.0054,-0.0054,0.0741,0.0777,0.083,0.0905,0.0976,0.1068,0.1137,0.1214,0.1297,0.1346,0.1305,0.1246,0.0976,0.056,0.0274,-0.0023,-0.0009,-0.0114,-0.0112,-0.0109,-0.0084,-0.0065,-0.0141,-0.0141,-0.0142,-0.0142,-0.0142,0,0.0773,0.0815,0.0887,0.0973,0.1055,0.109,0.1212,0.1281,0.1378,0.142,0.1433,0.1179,0.0912,0.0601,0.0161,-0.0101,-0.0114,-0.0182,-0.0142,-0.0137,-0.0134,-0.011,-0.0174,-0.0175,-0.0176,-0.0177,0,0,0.0789,0.0853,0.0887,0.1015,0.1085,0.1199,0.1272,0.1371,0.1433,0.1469,0.1439,0.1384,0.1006,0.0682,0.0326,0.0072,0.0029,0.0025,0.008,0.0175,0.0181,-0.0065,-0.0018,0,0,0,0,0]}],[{"header":{"parameterUnit":"m.s-1","parameterCategory":2,"la1":30.2991,"la2":30.254,"lo1":-89.0895,"lo2":-89.0444,"dy":0.0017,"dx":0.0017,"nx":28,"ny":28,"refTime":"2025-09-11T21:00:00:Z","depth":"4","parameterNumber":2,"parameterNumberName":"U-component_of_CURRENTS"},"data":[0,0,0,0,0,0,0,0,0,0,0,0,0,0,0,0,0,0,0,0,0,0,0,0,0,0,0,0,0,0,0,0,0,0,0,0,0,0,0,0,0,0,0,0,0,0,0,0,0,0,0,0,0,0,0,0,0,0,0.1503,0.1504,0,0.1544,0.1544,0.1545,0.1585,0.1586,0.1587,0.1587,0.1634,0.1635,0.1636,0,0,0,0,0,0,0,0,0,0,0,0,0,0.1459,0.146,0.1503,0.1504,0.1505,0.1544,0.1544,0.1545,0.1585,0.1586,0.1587,0.1588,0.1634,0.1635,0.1636,0,0,0,0,0,0,0,0,0,0,0,0,0,0.1485,0.146,0.1503,0.1531,0.1535,0.1544,0.1544,0.1545,0.1585,0.1586,0.1587,0.1588,0.1634,0.1635,0.1636,0.1617,0,0,0.1638,0.1638,0,0,0,0,0,0,0,0,0.1483,0.1486,0.1526,0.1529,0.1533,0.1563,0.1546,0.157,0.1585,0.1563,0.1587,0.1589,0.1612,0.1615,0.1616,0.162,0.1622,0.1638,0.1639,0.1639,0.1639,0,0,0,0,0,0,0,0.1481,0.1484,0.1517,0.1527,0.1531,0.1542,0.1547,0.1551,0.1579,0.1565,0.1569,0.1577,0.1614,0.1615,0.1617,0.1622,0.1638,0.1639,0.1639,0.164,0.1724,0.1725,0,0,0,0,0,0,0.148,0.1482,0.1515,0.1518,0.1513,0.1542,0.1547,0.155,0.1579,0.1585,0.1576,0.1579,0.1613,0.1616,0.1619,0.1694,0.1639,0.164,0.164,0.1722,0.1724,0.1726,0,0,0,0,0,0,0.1479,0.1482,0.1514,0.1504,0.1509,0.1542,0.1545,0.155,0.1588,0.1587,0.1593,0.1612,0.1614,0.1618,0.1661,0.1692,0.164,0.1641,0.172,0.1723,0.1725,0.1782,0,0,0,0,0,0,0.1477,0.1481,0.15,0.1503,0.151,0.1541,0.1544,0.155,0.159,0.1595,0.1619,0.1623,0.1615,0.166,0.1662,0.1693,0.1641,0.1718,0.1721,0.1724,0.1778,0.1786,0.1794,0,0,0,0,0,0.1475,0.1489,0.1501,0.1506,0.1528,0.1542,0.1546,0.1571,0.1591,0.1609,0.1636,0.1624,0.1683,0.1662,0.1664,0.1695,0.1716,0.172,0.1724,0.1775,0.1785,0.1793,0,0,0,0,0,0,0.1479,0.1495,0.1508,0.1526,0.1545,0.155,0.1575,0.1591,0.1625,0.1642,0.1643,0.1649,0.1699,0.1691,0.1669,0.1731,0.1698,0.1703,0.1736,0.1746,0.1753,0.1762,0.1642,0,0,0,0,0,0.1488,0.1508,0.1519,0.154,0.155,0.157,0.1587,0.1604,0.1626,0.1644,0.1664,0.1687,0.1709,0.1725,0.174,0.1769,0.1775,0.1793,0.1801,0.1807,0.1817,0.1858,0.187,0.1739,0.1739,0.1739,0,0,0.1497,0.151,0.1523,0.1544,0.1561,0.1578,0.1584,0.1617,0.1644,0.1642,0.1699,0.1718,0.1726,0.1765,0.1786,0.1766,0.1848,0.1812,0.1818,0.1824,0.1863,0.1876,0.1887,0.1741,0.1741,0.1741,0,0,0.1511,0.1535,0.1552,0.1569,0.1602,0.1611,0.1629,0.1655,0.1685,0.1729,0.1744,0.1788,0.1814,0.1831,0.1839,0.1899,0.1891,0.1907,0.195,0.1989,0.2,0.201,0.2034,0.2046,0.1907,0.1907,0.1907,0,0.1528,0.1541,0.1561,0.1579,0.1599,0.1629,0.1649,0.1678,0.1722,0.1752,0.1759,0.1833,0.1844,0.1894,0.192,0.1917,0.1935,0.191,0.1999,0.2009,0.2018,0.204,0.2052,0.191,0.191,0.191,0.1909,0,0.1536,0.1564,0.1577,0.1608,0.1634,0.1658,0.1692,0.1738,0.1778,0.1805,0.188,0.1904,0.1949,0.1961,0.1959,0.2033,0.2023,0.2006,0.1973,0.2034,0.2054,0.2065,0.1915,0.1914,0.1913,0.1912,0,0,0.1527,0.1573,0.1583,0.1605,0.1652,0.167,0.1729,0.1779,0.1831,0.1883,0.1948,0.1998,0.2029,0.2042,0.2056,0.2092,0.2172,0.2085,0.2085,0.2104,0.226,0.2115,0.2112,0.2175,0.2177,0.2179,0.2248,0,0.1531,0.1565,0.1589,0.1635,0.1654,0.1705,0.1755,0.1815,0.1872,0.1944,0.1992,0.2059,0.2053,0.2095,0.2132,0.2168,0.2206,0.2155,0.2202,0.2203,0.2062,0.2122,0.2186,0.2257,0.2259,0.2261,0.2262,0,0.1523,0.1549,0.1589,0.1652,0.1668,0.1707,0.1799,0.1847,0.1949,0.2002,0.2077,0.212,0.2202,0.2184,0.2274,0.2246,0.2266,0.2281,0.2283,0.2135,0.2078,0.2183,0.2282,0.2281,0.2279,0.2278,0.2277,0,0.1492,0.1549,0.1584,0.1603,0.1678,0.1725,0.1775,0.1873,0.1932,0.2054,0.2114,0.2201,0.2266,0.2309,0.2348,0.2328,0.243,0.2397,0.2282,0.2271,0.2356,0.2344,0.2461,0.2461,0.246,0.246,0.246,0,0.1467,0.1502,0.158,0.1598,0.1658,0.1719,0.1802,0.1872,0.1984,0.2052,0.2149,0.2212,0.2306,0.2368,0.2383,0.2365,0.246,0.2301,0.2284,0.2378,0.2368,0.2363,0.2351,0.2463,0.2462,0.2462,0.2461,0,0.1423,0.1474,0.1523,0.1611,0.1645,0.1692,0.1811,0.1865,0.1985,0.2079,0.2127,0.2255,0.2327,0.2391,0.2467,0.2396,0.2402,0.2372,0.248,0.2465,0.2207,0.2198,0.2243,0.2238,0.2234,0.2231,0.2228,0,0.1394,0.1416,0.1522,0.1554,0.1599,0.1681,0.1733,0.1858,0.1911,0.2079,0.2108,0.2237,0.2301,0.2287,0.2363,0.2377,0.2349,0.2331,0.2256,0.2209,0.2188,0.2184,0.218,0.2222,0.2221,0.222,0.2219,0,0.1337,0.1396,0.1436,0.1505,0.1565,0.1619,0.1701,0.1731,0.1865,0.1998,0.2044,0.2084,0.2157,0.2197,0.2228,0.2231,0.2327,0.229,0.2297,0.2227,0.2185,0.2167,0.2167,0.2206,0.2208,0.2209,0.221,0,0.1301,0.1319,0.1383,0.1431,0.1503,0.1522,0.1578,0.1629,0.1698,0.1873,0.1887,0.2013,0.2136,0.2124,0.2152,0.2144,0.2105,0.2023,0.2043,0.2059,0.1964,0.1882,0.1804,0,0,0,0,0,0.1251,0.1258,0.1296,0.1335,0.1402,0.1443,0.1537,0.1594,0.1727,0.1713,0.1793,0.1849,0.1891,0.196,0.1914,0.2069,0.2113,0.2007,0.2029,0.2133,0.2148,0.2053,0,0,0,0,0,0,0.1217,0.1253,0.1261,0.1244,0.1254,0.1308,0.1363,0.145,0.1447,0.1592,0.1626,0.174,0.1811,0.1902,0.1882,0.1902,0.1876,0.2092,0.2087,0.2125,0.2138,0.2151,0.2058,0,0,0,0,0]},{"header":{"parameterUnit":"m.s-1","parameterCategory":2,"la1":30.2991,"la2":30.254,"lo1":-89.0895,"lo2":-89.0444,"dy":0.0017,"dx":0.0017,"nx":28,"ny":28,"refTime":"2025-09-11T21:00:00:Z","depth":"4","parameterNumber":3,"parameterNumberName":"V-component_of_CURRENTS"},"data":[0,0,0,0,0,0,0,0,0,0,0,0,0,0,0,0,0,0,0,0,0,0,0,0,0,0,0,0,0,0,0,0,0,0,0,0,0,0,0,0,0,0,0,0,0,0,0,0,0,0,0,0,0,0,0,0,0,0,0.0262,0.0262,0,0.0242,0.0242,0.0242,0.0234,0.0234,0.0234,0.0234,0.0203,0.0202,0.0201,0,0,0,0,0,0,0,0,0,0,0,0,0,0.0259,0.026,0.0262,0.0262,0.0262,0.0242,0.0242,0.0242,0.0234,0.0234,0.0234,0.0234,0.0203,0.0202,0.0201,0,0,0,0,0,0,0,0,0,0,0,0,0,0.0252,0.026,0.0262,0.0255,0.0254,0.0243,0.0242,0.0242,0.0234,0.0234,0.0234,0.0234,0.0203,0.0202,0.0201,0.0191,0,0,0.0197,0.0196,0,0,0,0,0,0,0,0,0.0253,0.0252,0.0257,0.0256,0.0255,0.0241,0.023,0.0224,0.0234,0.0242,0.0234,0.0234,0.0214,0.0212,0.0208,0.019,0.0188,0.0196,0.0196,0.0195,0.0195,0,0,0,0,0,0,0,0.0253,0.0253,0.0254,0.0256,0.0255,0.0242,0.0241,0.0229,0.0227,0.0241,0.024,0.0238,0.0214,0.021,0.0207,0.0188,0.0196,0.0195,0.0194,0.0194,0.0166,0.0166,0,0,0,0,0,0,0.0257,0.0254,0.0255,0.0254,0.0254,0.0242,0.0241,0.0245,0.0228,0.0225,0.0238,0.0238,0.0212,0.0209,0.0206,0.0211,0.0195,0.0194,0.0193,0.0166,0.0166,0.0166,0,0,0,0,0,0,0.0258,0.0258,0.0256,0.0253,0.0252,0.0242,0.0246,0.0245,0.0246,0.0226,0.0223,0.0241,0.0212,0.0208,0.0202,0.0209,0.0193,0.0192,0.0166,0.0166,0.0166,0.0209,0,0,0,0,0,0,0.0258,0.0258,0.0266,0.0253,0.0252,0.0255,0.0246,0.0244,0.0244,0.0243,0.0228,0.0225,0.0211,0.0204,0.0201,0.0207,0.0191,0.0166,0.0166,0.0166,0.0207,0.021,0.0213,0,0,0,0,0,0.0258,0.0268,0.0266,0.0266,0.0261,0.0255,0.0254,0.0247,0.0244,0.0247,0.0237,0.0225,0.0202,0.0203,0.0199,0.0205,0.0166,0.0166,0.0166,0.0206,0.0209,0.0213,0,0,0,0,0,0,0.0271,0.0268,0.0266,0.0275,0.0268,0.0254,0.0258,0.0251,0.0245,0.0247,0.0228,0.0224,0.0221,0.0205,0.0207,0.0196,0.0181,0.018,0.0213,0.0216,0.0219,0.0227,0.019,0,0,0,0,0,0.0278,0.0286,0.0276,0.0284,0.0283,0.0271,0.0269,0.0264,0.0255,0.0253,0.0241,0.0227,0.0216,0.0211,0.0198,0.0194,0.0165,0.0193,0.0196,0.0198,0.0201,0.0162,0.0162,0.0166,0.0166,0.0166,0,0,0.0285,0.0284,0.0289,0.0288,0.0282,0.0288,0.027,0.0271,0.0277,0.025,0.0255,0.0238,0.0217,0.0213,0.021,0.0203,0.0181,0.0198,0.0201,0.0202,0.0162,0.0161,0.0161,0.0166,0.0166,0.0166,0,0,0.0303,0.0303,0.0316,0.0313,0.0309,0.0304,0.0307,0.0296,0.0293,0.0292,0.0274,0.0261,0.0246,0.0231,0.0222,0.023,0.0197,0.0226,0.0248,0.021,0.0209,0.0209,0.017,0.0166,0.0228,0.0228,0.0228,0,0.0313,0.0328,0.0318,0.0327,0.0332,0.0315,0.033,0.0322,0.0311,0.031,0.03,0.0272,0.0254,0.0245,0.025,0.0237,0.021,0.024,0.0214,0.0213,0.0211,0.0172,0.0166,0.023,0.023,0.0229,0.0229,0,0.0337,0.0351,0.0358,0.0369,0.0371,0.038,0.0371,0.037,0.0363,0.0353,0.0341,0.0311,0.0295,0.0284,0.0271,0.0254,0.0236,0.0223,0.0208,0.0213,0.0172,0.0165,0.0233,0.0232,0.0231,0.0231,0,0,0.0357,0.0374,0.0378,0.0394,0.0396,0.0403,0.041,0.0413,0.0421,0.0395,0.0397,0.0368,0.0347,0.0334,0.0308,0.0274,0.0238,0.0249,0.0246,0.0215,0.0151,0.0144,0.0135,0.022,0.0219,0.0218,0.0127,0,0.0383,0.0415,0.0416,0.045,0.0468,0.0458,0.0467,0.0465,0.0457,0.0451,0.0408,0.0401,0.0367,0.0362,0.0321,0.0263,0.0222,0.0264,0.0147,0.0144,0.014,0.0128,0.0216,0.0122,0.012,0.0119,0.0118,0,0.0409,0.0429,0.0468,0.0498,0.0504,0.0522,0.054,0.0546,0.0528,0.0521,0.0496,0.0461,0.0416,0.0383,0.0275,0.0303,0.0233,0.0178,0.0173,0.0147,0.0124,0.0114,0.0105,0.0106,0.0107,0.0108,0.0109,0,0.0432,0.0468,0.0505,0.0514,0.0539,0.0556,0.0571,0.0568,0.0586,0.0566,0.0571,0.0504,0.0477,0.0379,0.0269,0.027,0.0141,0.0126,0.0048,0.0046,0.0062,0.0064,0.0041,0.0041,0.0042,0.0042,0.0042,0,0.0457,0.0487,0.0521,0.054,0.0587,0.0592,0.0637,0.0636,0.0646,0.0668,0.0611,0.0603,0.0474,0.0386,0.0278,0.0144,0.0143,0.0048,0.0021,0.0082,0.0087,0.0057,0.006,0.0038,0.0039,0.004,0.004,0,0.0473,0.0493,0.0541,0.0581,0.06,0.0634,0.0692,0.0721,0.0722,0.0746,0.0743,0.0674,0.056,0.0421,0.0259,0.0165,0.0033,-0.0016,0.006,0.004,-0.0041,-0.0034,-0.0115,-0.0116,-0.0117,-0.0117,-0.0118,0,0.0483,0.0507,0.0573,0.0609,0.0633,0.0689,0.0728,0.0757,0.0791,0.0788,0.0796,0.0703,0.0636,0.0403,0.0253,0.0038,0.0007,-0.0067,-0.0058,-0.0039,-0.0057,-0.0049,-0.0042,-0.0119,-0.012,-0.012,-0.012,0,0.0499,0.0525,0.0564,0.0637,0.0692,0.0757,0.0815,0.0845,0.087,0.0877,0.0837,0.0718,0.0587,0.0406,0.0238,0.0085,-0.0022,-0.0077,-0.0077,-0.0068,-0.0046,-0.0061,-0.0053,-0.0123,-0.0123,-0.0123,-0.0122,0,0.0511,0.0541,0.0593,0.0658,0.0731,0.0795,0.0831,0.0865,0.0895,0.0889,0.0873,0.0734,0.0657,0.0429,0.0276,0.0123,0.0081,0.0025,0.002,0.0021,0.0088,0.0138,0.0091,0,0,0,0,0,0.0519,0.055,0.061,0.0679,0.0754,0.0799,0.0872,0.0901,0.0927,0.0905,0.0892,0.077,0.0544,0.0451,0.0296,0.0248,0.0048,0.006,-0.0021,-0.014,-0.0137,-0.0082,0,0,0,0,0,0,0.052,0.0575,0.0602,0.0684,0.0736,0.0819,0.0869,0.0892,0.0882,0.0884,0.0772,0.0721,0.0507,0.0632,0.0289,0.0244,0.0168,-0.004,-0.0044,-0.0142,-0.0139,-0.0136,-0.0079,0,0,0,0,0]}]]